This is the latest recevied weather packets stored in our database for station/object W4BOD. If no packets are shown the sender has not sent any weather packets the latest 10 day(s).
| Time | Temp. | Humidity | Pressure | Rain* | Wind** | Luminosity | Snow |
|---|---|---|---|---|---|---|---|
| 1777591137 | 18.89° C | 48% | 1014.5 hPa | 0 mm | - | 57 W/m² | - |
| 1777590831 | 19.44° C | 43% | 1014.5 hPa | 0 mm | - | 74 W/m² | - |
| 1777590529 | 18.89° C | 42% | 1014.7 hPa | 0 mm | - | 110 W/m² | - |
| 1777590224 | 19.44° C | 43% | 1014.7 hPa | 0 mm | - | 100 W/m² | - |
| 1777589922 | 19.44° C | 40% | 1014.5 hPa | 0 mm | - | 126 W/m² | - |
| 1777589618 | 19.44° C | 42% | 1014.5 hPa | 0 mm | - | 154 W/m² | - |
| 1777589315 | 18.89° C | 43% | 1014.5 hPa | 0 mm | - | 171 W/m² | - |
| 1777589012 | 19.44° C | 41% | 1014.7 hPa | 0 mm | - | 103 W/m² | - |
| 1777588708 | 19.44° C | 44% | 1014.8 hPa | 0 mm | - | 212 W/m² | - |
| 1777588404 | 18.89° C | 40% | 1014.8 hPa | 0 mm | - | 176 W/m² | - |
| 1777588099 | 20° C | 41% | 1014.7 hPa | 0 mm | - | 217 W/m² | - |
| 1777587791 | 19.44° C | 41% | 1014.7 hPa | 0 mm | - | 244 W/m² | - |
| 1777587489 | 19.44° C | 39% | 1014.7 hPa | 0 mm | - | 227 W/m² | - |
| 1777587186 | 20° C | 39% | 1014.8 hPa | 0 mm | - | 312 W/m² | - |
| 1777586882 | 19.44° C | 39% | 1014.9 hPa | 0 mm | - | 352 W/m² | - |
| 1777586578 | 20° C | 39% | 1014.7 hPa | 0 mm | - | 234 W/m² | - |
| 1777586273 | 20° C | 39% | 1014.8 hPa | 0 mm | - | 260 W/m² | - |
| 1777585971 | 20.56° C | 38% | 1014.6 hPa | 0 mm | - | 374 W/m² | - |
| 1777585666 | 19.44° C | 40% | 1014.8 hPa | 0 mm | - | 400 W/m² | - |
| 1777585361 | 20° C | 40% | 1014.8 hPa | 0 mm | - | 386 W/m² | - |
| 1777585056 | 20° C | 40% | 1015.1 hPa | 0 mm | - | 416 W/m² | - |
| 1777584752 | 20° C | 39% | 1014.8 hPa | 0 mm | - | 178 W/m² | - |
| 1777584451 | 19.44° C | 40% | 1014.8 hPa | 0 mm | - | 105 W/m² | - |
| 1777584147 | 20.56° C | 40% | 1014.9 hPa | 0 mm | - | 92 W/m² | - |
| 1777583846 | 19.44° C | 40% | 1015 hPa | 0 mm | - | 107 W/m² | - |
* Rain latest hour (hover to see other rain measurements)
** Current wind speed in m/s (hover to see current wind gust speed)